Location: Unspecified
(47.2333°N, 39.7000°E)
Time: 05:51:55
(UTC+00:00)

ISS - Pass Details

Date: 13 March 2021
Orbit: 418 x 422 km, 51.6° (Epoch: 16 April)

Event Time Altitude Azimuth Distance (km) Brightness Sun altitude
Exits shadow 02:30:53 13° 217° (SW) 1,335 -1.6 -12.2°
Drops below altitude 10° 02:32:03 10° 197° (SSW) 1,491 -1.2 -12.0°
Sets 02:35:00 0° 168° (SSE) 2,349 0.1 -11.5°
